Date String (YYYY-MM-DD hh:mm:ss) UTC,Instrument flags,absolute air pressure of the measurement (hPa),sample flow rate (lpm),inlet stack bypass flow (lpm),air temperature of the measurement (°C),ambient temperature measured by the external sensor (°C),aerosol sample conditioner tube jacket temperature (°C),OPC LED temperature (°C),internal box temperature (°C),relative humidity of the measurement (%),span deviation,mass concentration of particles derived from Lorenz-Mie calculation of OPC scattering (μg/m³),mass concentration of particles derived from Lorenz-Mie calculation of OPC scattering (μg/m³),mass concentration of particles derived from Lorenz-Mie calculation of OPC scattering (μg/m³)
DateTimeUTC,F1_M11,P_M11,Q1_M11,Q2_M11,T1_M11,T2_M11,T3_M11,T4_M11,T5_M11,U1_M11,ZSPAN_M11,X0_M11,X2_M11,X1_M11
2023-09-01 22:00:00,SystemResetWarning,0830.0,5.01,000.00,027.5,024.7,000.0,035.7,028.9,21.8,0000.0,0013.42,0004.27,0003.18
2023-09-01 22:01:00,SystemResetWarning,0830.0,5.00,000.00,027.5,025.0,000.0,035.7,029.0,21.5,0000.0,0013.91,0004.30,0003.19
2023-09-01 22:02:00,SystemResetWarning,0830.0,5.00,000.00,027.5,025.5,000.0,035.7,029.2,21.8,0000.0,0014.12,0004.32,0003.21
2023-09-01 22:03:00,SystemResetWarning,0830.0,5.01,000.00,027.6,025.9,000.0,035.8,029.3,21.4,0000.0,0014.53,0004.41,0003.22
2023-09-01 22:04:00,SystemResetWarning,0830.0,5.00,000.00,027.7,026.2,000.0,035.8,029.4,21.4,0000.0,0014.63,0004.43,0003.23
2023-09-01 22:05:00,SystemResetWarning,0830.0,4.98,000.00,027.6,025.2,000.0,035.8,029.0,21.7,0000.0,0014.69,0004.44,0003.23
2023-09-01 22:06:00,SystemResetWarning,0830.0,5.02,000.00,027.5,024.4,000.0,035.7,028.8,21.7,0000.0,0014.36,0004.45,0003.22
2023-09-01 22:07:00,SystemResetWarning,0830.0,5.01,000.00,027.5,024.6,000.0,035.7,028.8,21.4,0000.0,0014.46,0004.47,0003.23
2023-09-01 22:08:00,SystemResetWarning,0830.0,4.99,000.00,027.5,025.0,000.0,035.7,028.9,21.8,0000.0,0013.94,0004.47,0003.23
2023-09-01 22:09:00,SystemResetWarning,0830.0,5.00,000.00,027.5,025.4,000.0,035.7,029.1,21.9,0000.0,0014.08,0004.39,0003.21
2023-09-01 22:10:00,SystemResetWarning,0830.1,5.00,000.00,027.6,025.9,000.0,035.8,029.3,21.7,0000.0,0014.47,0004.35,0003.20
2023-09-01 22:11:00,SystemResetWarning,0830.0,5.01,000.00,027.6,026.3,000.0,035.8,029.5,21.5,0000.0,0014.88,0004.29,0003.18
2023-09-01 22:12:00,SystemResetWarning,0830.0,4.99,000.00,027.7,026.5,000.0,035.8,029.5,21.3,0000.0,0014.65,0004.26,0003.15
2023-09-01 22:13:00,SystemResetWarning,0830.0,4.98,000.00,027.7,025.4,000.0,035.8,029.1,21.3,0000.0,0014.53,0004.24,0003.12
2023-09-01 22:14:00,SystemResetWarning,0830.1,5.01,000.00,027.6,024.5,000.0,035.7,028.8,21.4,0000.0,0014.41,0004.15,0003.09
2023-09-01 22:15:00,SystemResetWarning,0830.0,5.01,000.00,027.5,024.7,000.0,035.7,028.9,21.8,0000.0,0014.78,0004.11,0003.04
2023-09-01 22:16:00,SystemResetWarning,0830.0,4.99,000.00,027.5,025.1,000.0,035.7,029.0,22.0,0000.0,0015.10,0004.12,0003.00
2023-09-01 22:17:00,SystemResetWarning,0830.0,5.01,000.00,027.6,025.5,000.0,035.8,029.2,21.7,0000.0,0014.24,0004.08,0002.97
2023-09-01 22:18:00,SystemResetWarning,0830.0,5.00,000.00,027.6,026.0,000.0,035.8,029.3,21.6,0000.0,0013.72,0004.09,0002.95
2023-09-01 22:19:00,SystemResetWarning,0830.0,4.99,000.00,027.7,026.1,000.0,035.8,029.4,21.8,0000.0,0013.41,0004.07,0002.91
2023-09-01 22:20:00,SystemResetWarning,0830.0,5.00,000.00,027.6,025.0,000.0,035.8,029.0,21.9,0000.0,0012.82,0004.06,0002.88
2023-09-01 22:21:00,SystemResetWarning,0830.0,5.01,000.00,027.5,024.3,000.0,035.7,028.7,21.5,0000.0,0012.17,0004.01,0002.86
2023-09-01 22:22:00,SystemResetWarning,0830.0,5.01,000.00,027.5,024.5,000.0,035.7,028.8,21.6,0000.0,0011.24,0004.01,0002.85
2023-09-01 22:23:00,SystemResetWarning,0830.0,5.00,000.00,027.5,024.9,000.0,035.7,028.9,21.8,0000.0,0011.31,0003.98,0002.83
2023-09-01 22:24:00,SystemResetWarning,0830.0,5.00,000.00,027.5,025.4,000.0,035.7,029.1,21.4,0000.0,0012.01,0003.98,0002.81
2023-09-01 22:25:00,SystemResetWarning,0830.0,5.00,000.00,027.6,025.8,000.0,035.8,029.3,21.4,0000.0,0012.18,0003.98,0002.81
2023-09-01 22:26:00,SystemResetWarning,0830.0,5.00,000.00,027.6,026.2,000.0,035.8,029.4,21.8,0000.0,0013.29,0003.95,0002.80
2023-09-01 22:27:00,SystemResetWarning,0830.0,5.01,000.00,027.7,026.4,000.0,035.8,029.5,21.4,0000.0,0013.10,0003.93,0002.77
2023-09-01 22:28:00,SystemResetWarning,0830.0,4.98,000.00,027.7,025.2,000.0,035.8,029.0,21.7,0000.0,0014.70,0003.94,0002.76
2023-09-01 22:29:00,SystemResetWarning,0829.9,5.01,000.00,027.6,024.4,000.0,035.7,028.8,22.1,0000.0,0015.58,0003.89,0002.72
2023-09-01 22:30:00,SystemResetWarning,0829.9,5.01,000.00,027.5,024.6,000.0,035.7,028.9,21.8,0000.0,0016.03,0003.87,0002.72
2023-09-01 22:31:00,SystemResetWarning,0830.0,5.00,000.00,027.5,025.0,000.0,035.7,029.0,21.3,0000.0,0016.08,0003.88,0002.72
2023-09-01 22:32:00,SystemResetWarning,0830.0,5.00,000.00,027.5,025.4,000.0,035.7,029.1,21.1,0000.0,0015.70,0003.92,0002.71
2023-09-01 22:33:00,SystemResetWarning,0829.9,5.00,000.00,027.6,025.9,000.0,035.8,029.3,21.0,0000.0,0015.46,0003.90,0002.71
2023-09-01 22:34:00,SystemResetWarning,0830.0,5.00,000.00,027.7,026.3,000.0,035.8,029.4,20.9,0000.0,0015.80,0003.89,0002.71
2023-09-01 22:35:00,SystemResetWarning,0830.0,4.99,000.00,027.7,026.4,000.0,035.8,029.5,21.0,0000.0,0015.01,0003.90,0002.72
2023-09-01 22:36:00,SystemResetWarning,0829.9,4.99,000.00,027.7,025.3,000.0,035.8,029.1,20.5,0000.0,0015.26,0003.92,0002.74
2023-09-01 22:37:00,SystemResetWarning,0829.9,5.02,000.00,027.6,024.5,000.0,035.7,028.9,20.9,0000.0,0016.10,0003.95,0002.73
2023-09-01 22:38:00,SystemResetWarning,0829.8,5.00,000.00,027.6,024.7,000.0,035.7,029.0,21.6,0000.0,0015.27,0003.95,0002.76
2023-09-01 22:39:00,SystemResetWarning,0829.8,4.99,000.00,027.5,025.1,000.0,035.8,029.1,21.6,0000.0,0015.00,0003.89,0002.76
2023-09-01 22:40:00,SystemResetWarning,0829.8,5.00,000.00,027.6,025.6,000.0,035.8,029.2,20.6,0000.0,0014.35,0003.93,0002.78
2023-09-01 22:41:00,SystemResetWarning,0829.8,5.00,000.00,027.6,026.0,000.0,035.8,029.4,20.2,0000.0,0014.38,0003.95,0002.79
2023-09-01 22:42:00,SystemResetWarning,0829.8,4.99,000.00,027.7,026.4,000.0,035.9,029.5,20.5,0000.0,0014.76,0003.96,0002.80
2023-09-01 22:43:00,SystemResetWarning,0829.8,4.99,000.00,027.7,025.9,000.0,035.9,029.3,20.8,0000.0,0015.32,0004.00,0002.83
2023-09-01 22:44:00,SystemResetWarning,0829.7,5.00,000.00,027.6,024.6,000.0,035.8,028.9,21.2,0000.0,0016.61,0004.02,0002.87
2023-09-01 22:45:00,SystemResetWarning,0829.7,5.02,000.00,027.6,024.5,000.0,035.8,028.9,21.1,0000.0,0017.08,0004.06,0002.91
2023-09-01 22:46:00,SystemResetWarning,0829.7,4.99,000.00,027.5,024.9,000.0,035.8,029.0,20.4,0000.0,0017.65,0004.09,0002.93
2023-09-01 22:47:00,SystemResetWarning,0829.8,5.00,000.00,027.5,025.3,000.0,035.8,029.1,20.8,0000.0,0017.84,0004.11,0002.95
2023-09-01 22:48:00,SystemResetWarning,0829.8,5.00,000.00,027.6,025.8,000.0,035.8,029.3,20.7,0000.0,0017.47,0004.12,0002.97
2023-09-01 22:49:00,SystemResetWarning,0829.8,5.00,000.00,027.7,026.2,000.0,035.8,029.5,20.3,0000.0,0017.22,0004.15,0002.98
2023-09-01 22:50:00,SystemResetWarning,0829.8,4.98,000.00,027.7,026.3,000.0,035.9,029.5,19.8,0000.0,0016.76,0004.22,0003.00
2023-09-01 22:51:00,SystemResetWarning,0829.7,4.98,000.00,027.7,025.1,000.0,035.8,029.0,19.9,0000.0,0015.90,0004.23,0003.04
2023-09-01 22:52:00,SystemResetWarning,0829.7,5.01,000.00,027.6,024.3,000.0,035.8,028.8,20.2,0000.0,0015.52,0004.21,0003.07
2023-09-01 22:53:00,SystemResetWarning,0829.7,5.01,000.00,027.5,024.6,000.0,035.7,028.9,20.5,0000.0,0015.58,0004.23,0003.10
2023-09-01 22:54:00,SystemResetWarning,0829.7,5.00,000.00,027.5,025.0,000.0,035.8,029.0,20.4,0000.0,0015.33,0004.23,0003.11
2023-09-01 22:55:00,SystemResetWarning,0829.7,4.99,000.00,027.6,025.5,000.0,035.8,029.2,20.3,0000.0,0014.41,0004.26,0003.11
2023-09-01 22:56:00,SystemResetWarning,0829.7,5.00,000.00,027.6,026.0,000.0,035.8,029.4,19.9,0000.0,0013.91,0004.30,0003.10
2023-09-01 22:57:00,SystemResetWarning,0829.7,5.00,000.00,027.7,026.4,000.0,035.8,029.5,19.7,0000.0,0014.09,0004.25,0003.10
2023-09-01 22:58:00,SystemResetWarning,0829.7,4.98,000.00,027.7,025.7,000.0,035.8,029.3,19.8,0000.0,0014.33,0004.22,0003.08
2023-09-01 22:59:00,SystemResetWarning,0829.7,5.00,000.00,027.6,024.5,000.0,035.8,028.9,20.4,0000.0,0014.12,0004.19,0003.06
